Orbital Elements at Epoch 2459000.5 (2020-May-31.0) TDB
Reference: JPL 33 (heliocentric ecliptic J2000)
Element | Value | Uncertainty (1-sigma) | Units |
e | .1520685015389583 | 3.9769e-08 | |
a | 2.315824409445197 | 7.1708e-09 | au |
q | 1.963660461673523 | 9.3459e-08 | au |
i | 4.997190963186345 | 4.005e-06 | deg |
node | 42.36970631756117 | 5.3324e-05 | deg |
peri | 338.2045563102442 | 5.5367e-05 | deg |
M | 36.6792219600261 | 1.481e-05 | deg |
tp | 2458869.348131665184 (2020-Jan-20.84813167) | 5.2851e-05 | TDB |
period | 1287.232118827095 3.52 | 5.9788e-06 1.637e-08 | d yr |
n | .2796698394443624 | 1.299e-09 | deg/d |
Q | 2.667988357216871 | 8.2613e-09 | au |
|
| | Orbit Determination Parameters
Additional Information
|